GW3984 Weather Reports


Display with metric or nautical units.
time (UTC)temp
F
wind
direction
speed
MPH
gust
MPH
rain 1hr
in
rain 24hr
in
rain mn
in
humidity
%
barometer
mb
20260502220022 72 169 2.0 7.0 0.00 0.00 0.00 42 1020.3
20260502215920 73 152 1.0 5.0 0.00 0.00 0.00 43 1019.6
20260502214921 73 172 1.0 5.0 0.00 0.00 0.00 44 1019.6
20260502214520 73 232 1.0 6.0 0.00 0.00 0.00 43 1020.4
20260502213912 73 122 0.0 4.0 0.00 0.00 0.00 48 1019.7
20260502213015 73 213 0.0 9.0 0.00 0.01 0.00 45 1020.5
20260502212922 73 296 0.0 6.0 0.00 0.01 0.00 46 1019.8
20260502211912 74 54 0.0 3.0 0.00 0.01 0.00 46 1020.0
20260502211512 74 61 1.0 3.0 0.00 0.02 0.00 42 1020.9
20260502210917 73 141 0.0 0.0 0.00 0.03 0.00 45 1020.1
20260502210008 73 164 2.0 5.0 0.00 0.04 0.00 43 1021.0
20260502205936 74 143 0.0 3.0 0.00 0.03 0.00 43 1020.3
20260502204941 74 325 0.0 9.0 0.00 0.05 0.00 44 1020.5
20260502204528 74 142 1.0 5.0 0.00 0.05 0.00 48 1021.3
20260502203027 74 103 0.0 5.0 0.00 0.08 0.00 44 1021.4
20260502202853 74 183 0.0 3.0 0.00 0.08 0.00 44 1020.7
20260502201910 74 355 0.0 3.0 0.00 0.08 0.00 42 1020.7
20260502201522 74 286 1.0 4.0 0.00 0.09 0.00 42 1021.6
20260502200910 74 273 0.0 5.0 0.00 0.10 0.00 52 1020.9
20260502200024 72 319 1.0 7.0 0.00 0.12 0.00 46 1021.6
20260502195857 73 205 0.0 5.0 0.00 0.12 0.00 45 1020.9
20260502194521 72 302 1.0 6.0 0.00 0.12 0.00 46 1021.8
20260502193729 73 318 0.0 10.0 0.00 0.12 0.00 49 1021.0
20260502193026 73 231 0.0 12.0 0.00 0.12 0.00 48 1021.8
20260502192710 74 304 1.0 10.0 0.00 0.12 0.00 50 1021.1
20260502191715 73 322 1.0 5.0 0.00 0.12 0.00 49 1021.2
20260502191520 72 136 3.0 7.0 0.00 0.12 0.00 47 1021.9
20260502190653 73 26 0.0 1.0 0.00 0.12 0.00 48 1021.3
20260502190013 73 277 0.0 10.0 0.00 0.12 0.00 51 1022.2
20260502185633 73 245 1.0 8.0 0.00 0.12 0.00 53 1021.4
20260502184612 73 297 0.0 11.0 0.00 0.12 0.00 50 1021.5
20260502184522 72 44 1.0 4.0 0.00 0.12 0.00 49 1022.3
20260502183600 74 353 0.0 11.0 0.00 0.12 0.00 51 1021.6
20260502183026 72 213 3.0 13.0 0.00 0.13 0.00 50 1022.4
20260502182604 73 152 0.0 4.0 0.00 0.12 0.00 51 1021.6
20260502181523 72 330 2.0 4.0 0.00 0.13 0.00 52 1022.7
20260502170202 69 330 1.0 8.0 0.00 0.29 0.00 55 1022.7
20260502163041 70 328 0.0 3.0 0.00 0.38 0.00 56 1022.9
20260502163028 69 119 1.0 5.0 0.00 0.38 0.00 53 1023.7
20260502162007 69 292 0.0 3.0 0.00 0.38 0.00 57 1022.9
20260502161528 68 352 1.0 5.0 0.00 0.38 0.00 59 1023.7
20260502151714 63 321 0.0 2.0 0.00 0.38 0.00 66 1022.6
20260502151537 63 296 0.0 3.0 0.00 0.39 0.00 68 1023.5
20260502150654 62 259 0.0 2.0 0.00 0.39 0.00 70 1022.7
20260502130519 52 317 0.0 0.0 0.00 0.57 0.00 88 1021.3
20260502123307 49 1 0.0 0.0 0.00 0.62 0.00 92 1020.9
20260502123015 48 313 0.0 2.0 0.00 0.63 0.00 92 1021.3
20260502122253 49 318 0.0 1.0 0.00 0.62 0.00 93 1020.6
20260502121514 48 350 0.0 2.0 0.00 0.63 0.00 92 1021.1
20260502121235 48 52 0.0 1.0 0.00 0.62 0.00 93 1020.4
20260502120204 48 330 0.0 0.0 0.00 0.62 0.00 93 1020.3
20260502115217 47 328 0.0 0.0 0.00 0.62 0.00 92 1020.2
20260502114511 47 323 0.0 0.0 0.00 0.63 0.00 92 1020.7
20260502113100 48 328 0.0 0.0 0.00 0.64 0.00 92 1020.1
20260502113010 47 323 0.0 0.0 0.00 0.65 0.00 91 1020.6
20260502112050 48 23 0.0 0.0 0.00 0.67 0.00 91 1020.0
20260502111516 48 29 0.0 0.0 0.00 0.68 0.00 91 1020.5
20260502111112 48 23 0.0 0.0 0.00 0.69 0.00 91 1019.9
20260502110056 49 23 0.0 0.0 0.00 0.72 0.00 91 1019.7
20260502110026 48 29 0.0 0.0 0.00 0.72 0.00 90 1020.3
20260502104519 48 344 0.0 2.0 0.00 0.76 0.00 90 1020.2
20260502103914 49 314 0.0 1.0 0.00 0.80 0.00 91 1019.5
20260502103017 48 351 0.0 0.0 0.00 0.88 0.00 91 1020.1
20260502102852 49 319 0.0 0.0 0.00 0.93 0.00 92 1019.5
20260502101829 49 335 0.0 0.0 0.00 1.03 0.00 92 1019.4
20260502101520 48 328 0.0 0.0 0.00 1.03 0.00 91 1020.0
20260502100827 49 0 0.0 0.0 0.00 1.03 0.00 92 1019.2
20260502091518 48 336 0.0 0.0 0.00 1.19 0.00 92 1019.3
20260502090701 49 342 0.0 0.0 0.00 1.20 0.00 92 1018.4
20260502071520 51 340 0.0 2.0 0.00 1.60 0.00 90 1018.4
20260502070221 51 327 0.0 0.0 0.00 1.68 0.00 90 1017.7
20260502070024 51 321 0.0 0.0 0.00 1.69 0.00 90 1018.4
20260502065150 51 326 0.0 0.0 0.00 1.76 0.00 90 1017.8
20260502064522 51 36 0.0 2.0 0.00 1.78 0.00 90 1018.7
20260502064137 52 303 0.0 0.0 0.00 1.86 0.00 90 1018.0
20260502063110 52 296 0.0 0.0 0.00 1.88 0.00 90 1017.9
20260502063023 51 300 0.0 2.0 0.00 1.89 0.00 89 1018.6
20260502061522 51 304 0.0 2.0 0.00 1.89 0.00 89 1018.6
20260502060956 52 324 0.0 1.0 0.00 1.89 0.00 89 1017.9
20260502060021 52 293 0.0 2.0 0.00 1.90 0.00 89 1018.7
20260502060002 52 297 0.0 0.0 0.00 1.89 0.00 89 1017.9
20260502054928 52 352 0.0 1.0 0.00 1.94 0.00 89 1017.9
20260502054518 52 239 0.0 2.0 0.00 1.95 0.00 88 1018.6
20260502053931 52 341 0.0 1.0 0.00 1.97 0.00 89 1017.8
20260502053015 52 352 0.0 2.0 0.00 1.98 0.00 88 1018.5
20260502052944 52 359 0.0 0.0 0.00 1.97 0.00 88 1017.8
20260502051943 52 304 0.0 0.0 0.00 1.97 0.00 88 1017.9
20260502051511 52 298 0.0 2.0 0.00 1.98 0.00 87 1018.7
20260502050955 53 326 0.0 1.0 0.00 1.97 0.00 88 1018.0
20260502050008 52 269 0.0 2.0 0.00 1.98 0.00 87 1018.8
20260502044813 53 296 0.0 3.0 0.00 1.97 1.98 88 1017.7
20260502044525 53 329 0.0 3.0 0.00 1.98 1.98 87 1018.5
20260502043753 53 304 0.0 1.0 0.00 1.97 1.98 88 1017.7
20260502043026 53 266 0.0 2.0 0.00 1.98 1.98 87 1018.5
20260502041622 54 313 0.0 2.0 0.00 1.97 1.98 87 1017.6
20260502041523 53 313 0.0 4.0 0.00 1.98 1.98 87 1018.4
20260502040611 54 296 0.0 3.0 0.00 1.97 1.98 87 1017.5
20260502040024 53 304 1.0 4.0 0.00 1.98 1.98 87 1018.1
20260502035622 54 1 0.0 3.0 0.00 1.97 1.98 87 1017.5
20260502034640 54 314 0.0 3.0 0.00 1.97 1.98 88 1017.4
20260502034518 53 276 1.0 3.0 0.00 1.98 1.98 87 1018.1
20260502033648 54 266 0.0 3.0 0.00 1.97 1.98 88 1017.3
20260502033019 53 308 1.0 4.0 0.00 1.98 1.98 88 1017.9
20260502032647 54 247 0.0 3.0 0.00 1.97 1.98 89 1017.2
20260502031631 54 321 0.0 1.0 0.00 1.97 1.98 89 1017.1
20260502031513 53 294 0.0 4.0 0.00 1.98 1.98 88 1017.9
20260502030612 53 311 0.0 3.0 0.00 1.97 1.98 89 1017.1
20260502030020 53 352 0.0 2.0 0.00 1.98 1.98 89 1017.7
20260502024531 53 293 1.0 3.0 0.00 1.98 1.98 88 1017.5
20260502023315 54 307 0.0 3.0 0.00 1.97 1.98 88 1016.6
20260502023031 53 321 1.0 4.0 0.00 1.98 1.98 88 1017.3
20260502021529 53 232 1.0 3.0 0.00 1.98 1.98 88 1016.7
20260502021153 54 307 0.0 4.0 0.00 1.97 1.98 89 1016.0
20260502020125 54 326 0.0 2.0 0.00 1.97 1.98 89 1015.7
20260502020026 54 305 1.0 3.0 0.00 1.98 1.98 89 1016.4
20260502015109 54 272 0.0 6.0 0.00 1.97 1.98 89 1015.7
20260502014517 54 294 1.0 8.0 0.00 1.98 1.98 89 1016.3
20260502013015 54 233 1.0 4.0 0.00 1.98 1.98 89 1016.2
20260502011833 55 314 0.0 4.0 0.00 1.97 1.98 90 1015.3
20260502011514 55 288 2.0 5.0 0.00 1.98 1.98 89 1015.9
20260502010847 56 48 0.0 4.0 0.00 1.97 1.98 90 1015.1
20260502010014 55 107 1.0 6.0 0.00 1.98 1.98 90 1015.4
20260502004709 56 315 0.0 3.0 0.00 1.97 1.98 91 1014.8
20260502004526 56 315 2.0 3.0 0.00 1.98 1.98 90 1015.3
20260502003705 56 351 0.0 5.0 0.00 1.97 1.98 91 1014.6
20260502003027 56 48 1.0 7.0 0.00 1.98 1.98 90 1015.0
20260502002719 57 328 0.0 5.0 0.00 1.97 1.98 91 1014.4
20260502001743 57 307 0.0 4.0 0.00 1.97 1.98 91 1014.1
20260502001527 56 300 1.0 4.0 0.00 1.98 1.98 90 1014.7
20260502000022 57 278 1.0 5.0 0.00 1.98 1.98 90 1014.3
20260501234525 57 11 1.0 3.0 0.00 1.98 1.98 91 1014.1
20260501234434 58 287 0.0 2.0 0.00 1.97 1.98 92 1013.5
20260501233018 57 218 1.0 3.0 0.00 1.98 1.98 91 1013.8
20260501232228 58 300 0.0 2.0 0.00 1.97 1.98 92 1013.0
20260501231515 58 273 1.0 3.0 0.00 1.98 1.98 91 1013.4
20260501230028 58 303 1.0 3.0 0.00 1.98 1.98 91 1013.2
20260501230023 58 224 0.0 2.0 0.00 1.97 1.98 92 1012.5
20260501225007 59 39 0.0 3.0 0.00 1.97 1.98 92 1012.6
20260501224537 58 211 0.0 4.0 0.00 1.98 1.98 91 1013.1
20260501223028 58 326 1.0 2.0 0.01 1.98 1.98 92 1013.6
20260501222830 59 291 0.0 5.0 0.00 1.97 1.98 92 1012.8
20260501221527 58 300 1.0 6.0 0.02 1.98 1.98 92 1013.3
20260501220706 59 281 0.0 3.0 0.00 1.97 1.98 93 1012.5